Tracking 28341 objects as of 5-Dec-2023
HD Live streaming from Space Station
objects crossing your sky now

SATCOM 2R

Track SATCOM 2R now!
SATCOM 2R is classified as:


NORAD ID: 14328
Int'l Code: 1983-094A
Perigee: 35,981.1 km
Apogee: 36,090.7 km
Inclination: 14.8 °
Period: 1,448.5 minutes
Semi major axis: 42406 km
RCS: 4.023 m2 (large)
Launch date: September 8, 1983
Source: United States (US)
Launch site: AIR FORCE EASTERN TEST RANGE (AFETR)
Your satellite tracking list
Your tracking list is empty




NASA's NSSDC Master Catalog

Two Line Element Set (TLE):
1 14328U 83094A   23338.79640757 -.00000173  00000-0  00000-0 0  9998
2 14328  14.7934 352.8652 0012925  61.5249 118.7622  0.99414185146352
Source of the keplerian elements: AFSPC